Details for Norwegian Air Shuttle at KFLL




Go Back


Latest METAR
Local Time

KFLL 221153Z 35004KT 10SM FEW028 SCT080 SCT250 27/26 A2999 RMK AO2 SLP156 T02670256 10278 20261 53007
22/09/2018, 07:56:37

Description
Results
Norwegian Air Shuttle Logo
Number of Pilots based at KFLL
0 Pilots Based here
Number of Norwegian Air Shuttle Flights Departed from KFLL
0 Flights Departed
Number of Norwegian Air Shuttle Flights Arrived at KFLL
0 Flights Arrived
Number of Norwegian Air Shuttle Schedules Departing from KFLL
7 Schedules
Number of Norwegian Air Shuttle Schedules Arriving at KFLL
7 Schedules
Number of Norwegian Air Shuttle Schedules Departing from KFLL availible today
1 Schedules Today
Number of Norwegian Air Shuttle Schedules Arriving at KFLL availible today
2 Schedules Today
Average Landing Rate at KFLL
-255 fpm
Norwegian Air Shuttle Average Landing Rate at KFLL
0 fpm
Total Fuel Purchased at KFLL by Norwegian Air Shuttle
0.00 kgs / 0.00 lbs

Pilots Based at KFLL


Pilot ID
Pilot Name
Pilot Rank
No. of Flights
No. of Flying Hours
There are no pilots assigned to this hub!   Will you be the first?
Content